This is the latest recevied weather packets stored in our database for station/object YT1XN-8. If no packets are shown the sender has not sent any weather packets the latest 10 day(s).
| Time | Temp. | Humidity | Pressure | Rain* | Wind** | Luminosity | Snow |
|---|---|---|---|---|---|---|---|
| 1777903844 | 24.44° C | 40% | 1017.6 hPa | 0 mm | - | - | - |
| 1777903781 | 24.44° C | 40% | 1017.5 hPa | 0 mm | - | - | - |
| 1777903242 | 24.44° C | 36% | 1017.6 hPa | 0 mm | - | - | - |
| 1777903121 | 24.44° C | 37% | 1017.7 hPa | 0 mm | - | - | - |
| 1777902643 | 24.44° C | 36% | 1017.7 hPa | 0 mm | - | - | - |
| 1777902461 | 25° C | 36% | 1017.7 hPa | 0 mm | - | - | - |
| 1777902043 | 26.11° C | 36% | 1017.8 hPa | 0 mm | - | - | - |
| 1777901801 | 26.67° C | 38% | 1017.9 hPa | 0 mm | - | - | - |
| 1777901442 | 26.11° C | 39% | 1018.1 hPa | 0 mm | - | - | - |
| 1777901141 | 25.56° C | 39% | 1018.1 hPa | 0 mm | - | - | - |
| 1777900842 | 25.56° C | 39% | 1018.2 hPa | 0 mm | - | - | - |
| 1777900481 | 25° C | 40% | 1018.4 hPa | 0 mm | - | - | - |
| 1777900243 | 25° C | 40% | 1018.4 hPa | 0 mm | - | - | - |
| 1777899821 | 24.44° C | 41% | 1018.5 hPa | 0 mm | - | - | - |
| 1777899642 | 24.44° C | 40% | 1018.5 hPa | 0 mm | - | - | - |
| 1777899161 | 24.44° C | 37% | 1018.6 hPa | 0 mm | - | - | - |
| 1777899042 | 24.44° C | 36% | 1018.6 hPa | 0 mm | - | - | - |
| 1777898501 | 25° C | 39% | 1018.8 hPa | 0 mm | - | - | - |
| 1777898443 | 25° C | 39% | 1018.8 hPa | 0 mm | - | - | - |
| 1777897841 | 24.44° C | 41% | 1018.9 hPa | 0 mm | - | - | - |
| 1777897243 | 23.89° C | 39% | 1019 hPa | 0 mm | - | - | - |
| 1777897181 | 23.89° C | 39% | 1019 hPa | 0 mm | - | - | - |
| 1777896642 | 24.44° C | 40% | 1019.2 hPa | 0 mm | - | - | - |
| 1777896521 | 24.44° C | 39% | 1019.2 hPa | 0 mm | - | - | - |
| 1777896042 | 25° C | 39% | 1019.3 hPa | 0 mm | - | - | - |
* Rain latest hour (hover to see other rain measurements)
** Current wind speed in m/s (hover to see current wind gust speed)